SCP
0 0 0 0 0 0 0 0 0 0 0 0 0 0 0 0 0 0 0 0 0 0 0 1 1 1 0 0 0 0 0 1 1 2 2 2 2 1 1 0 0 0 0 0
0 0 0 0 0 0 0 0 0 0 0 0 0 0 0 0 0 0 0 0 0 0 0 0 1 1 1 1 0 0 0 0 1 1 2 2 2 1 1 0 0 0 0 0
0 0 0 0 0 0 0 0 0 0 0 0 0 0 0 0 0 0 0 0 0 0 0 0 0 0 1 1 1 1 0 0 0 1 1 2 2 1 1 0 0 0 0 0
0 0 0 0 0 0 0 0 0 0 0 0 0 0 0 0 0 0 0 0 0 0 0 0 0 0 1 1 1 1 1 1 0 1 1 1 1 1 1 1 0 0 0 0
0 0 0 0 0 0 0 0 0 0 0 0 0 0 0 0 0 0 0 0 0 0 0 0 0 0 0 1 1 1 1 1 1 1 1 1 1 1 1 1 1 0 0 0
0 0 0 0 0 0 0 0 0 0 0 0 0 0 0 0 0 0 0 0 0 0 0 0 0 0 0 0 1 1 1 1 1 1 1 1 1 1 1 1 1 1 1 0
0 0 0 0 0 0 0 0 0 0 0 0 0 0 0 0 0 0 0 0 0 0 0 0 0 0 0 0 0 1 1 1 1 1 1 1 1 1 1 1 1 1 1 1
0 0 0 0 0 0 0 0 0 0 0 0 0 0 0 0 0 0 0 0 0 0 0 0 0 0 0 0 0 0 1 1 1 1 1 1 1 1 1 1 1 1 1 1
0 0 0 0 0 0 0 0 0 0 0 0 0 0 0 0 0 0 0 0 0 0 0 0 0 0 0 0 0 0 0 1 1 1 1 1 1 1 1 1 1 1 1 1
0 0 0 0 0 0 0 0 0 0 0 0 0 0 0 0 0 0 0 0 0 0 0 0 0 0 0 0 0 0 0 0 0 1 1 1 1 1 1 1 1 1 1 1
0 0 0 0 0 0 0 0 0 0 0 0 0 0 0 0 0 0 0 0 0 0 0 0 0 0 0 0 0 0 0 0 0 0 1 1 1 1 1 1 1 1 1 1
0 0 0 0 0 0 0 0 0 0 0 0 0 0 0 0 0 0 0 0 0 0 0 0 0 0 0 0 0 0 0 0 0 0 1 1 1 1 1 1 1 1 0 0
0 0 0 0 0 0 0 0 0 0 0 0 0 0 0 0 0 0 0 0 0 0 0 0 0 0 0 0 0 0 0 0 0 0 0 0 1 1 1 1 1 0 0 0
0 0 0 0 0 0 0 0 0 0 0 0 0 0 0 0 0 0 0 0 0 0 0 0 0 0 0 0 0 0 0 0 0 0 0 0 0 1 1 1 0 0 0 0
0 0 0 0 0 0 0 0 0 0 0 0 0 0 0 0 0 0 0 0 0 0 0 0 0 0 0 0 0 0 0 0 0 0 0 0 0 0 0 0 0 0 0 0
0 0 0 0 0 0 0 0 0 0 0 0 0 0 0 0 0 0 0 0 0 0 0 0 0 0 0 0 0 0 0 0 0 0 0 0 0 0 0 0 0 0 0 0
0 0 0 0 0 0 0 0 0 0 0 0 0 0 0 0 0 0 0 0 0 0 0 0 0 0 0 0 0 0 0 0 0 0 0 0 0 0 0 0 0 0 0 0
0 0 0 0 0 0 0 0 0 0 0 0 0 0 0 0 0 0 0 0 0 0 0 0 0 0 0 0 0 0 0 0 0 0 0 0 0 0 0 0 0 0 0 0
0 0 0 0 0 0 0 0 0 0 0 0 0 0 0 0 0 0 0 0 0 0 0 0 0 0 0 0 0 0 0 0 0 0 0 0 0 0 0 0 0 0 0 0
0 0 0 0 0 0 0 0 0 0 0 0 0 0 0 0 0 0 0 0 0 0 0 0 0 0 0 0 0 0 0 0 0 0 0 0 0 0 0 0 0 0 0 0
0 0 0 0 0 0 0 0 0 0 0 0 0 0 0 0 0 0 0 0 0 0 0 0 0 0 0 0 0 0 0 0 0 0 0 0 0 0 0 0 0 0 0 0
0 0 0 0 0 0 0 0 0 0 0 0 0 0 0 0 0 0 0 0 0 0 0 0 0 0 0 0 0 0 0 0 0 0 0 0 0 0 0 0 0 0 0 0
0 0 0 0 0 0 0 0 0 0 0 0 0 0 0 0 0 0 0 0 0 0 0 0 0 0 0 0 0 0 0 0 0 0 0 0 0 0 0 0 0 0 0 0
0 0 0 0 0 0 0 0 0 0 0 0 0 0 0 0 0 0 0 0 0 0 0 0 0 0 0 0 0 0 0 0 0 0 0 0 0 0 0 0 0 0 0 0
0 0 0 0 0 0 0 0 0 0 0 0 0 0 0 0 0 0 0 0 0 0 0 0 0 0 0 0 0 0 0 0 0 0 0 0 0 0 0 0 0 0 0 0
0 0 0 0 0 0 0 0 0 0 0 0 0 0 0 0 0 0 0 0 0 0 0 0 0 0 0 0 0 0 0 0 0 0 0 0 0 0 0 0 0 0 0 0
Wind_Speed
3 5 8 9 10 6 5 7 9 7 2 5 10 12 12 9 8 9 9 8 7 7 6 4 3 3 3 3 4 4 4 4 3 3 3 3 2 2 2 2 3 3 3 3
5 9 9 5 6 7 7 9 9 5 2 4 8 13 12 10 9 9 9 8 8 7 6 4 4 3 3 4 4 4 4 4 4 3 3 2 2 2 2 2 2 3 3 4
10 3 5 7 8 8 9 10 9 7 3 4 7 11 10 8 7 7 7 8 7 7 6 5 4 3 3 3 4 3 4 4 4 4 3 2 2 2 2 2 2 3 3 3
7 5 5 7 8 9 10 7 7 6 6 4 4 9 8 7 8 8 7 7 6 5 4 4 4 4 3 3 3 3 3 3 4 4 4 5 4 4 4 3 3 3 3 3
5 5 7 8 8 8 5 3 5 6 6 6 6 9 8 4 8 9 7 6 4 4 3 3 3 3 2 2 2 2 3 3 3 4 5 5 5 4 3 3 3 3 3 3
5 3 4 5 3 5 4 3 2 3 4 8 8 9 9 6 8 6 5 4 4 3 2 2 1 1 1 1 1 1 2 2 2 3 4 5 5 5 4 4 3 3 2 3
5 6 4 3 4 5 5 5 3 4 5 7 4 9 10 4 4 5 4 3 3 2 2 2 1 1 0 0 0 1 1 1 1 2 3 4 5 5 5 5 4 4 3 3
6 6 6 5 7 7 9 8 6 6 6 4 5 11 7 2 1 2 2 2 2 2 2 2 1 1 0 0 1 1 1 1 1 1 2 3 3 3 3 4 4 4 4 3
6 5 1 2 3 6 8 8 5 3 2 6 8 8 7 3 4 3 3 3 3 2 2 2 1 0 0 0 1 1 1 1 1 1 1 2 2 2 3 3 4 3 3 3
4 4 2 2 2 4 5 4 4 6 6 9 9 10 8 6 6 4 4 4 3 2 2 2 1 0 1 1 1 1 1 1 1 1 1 1 1 2 2 2 3 3 3 3
4 4 3 4 8 9 7 7 6 5 5 6 8 7 2 4 5 6 5 4 3 3 2 2 2 1 0 1 1 2 2 1 1 1 1 1 1 1 1 2 2 2 3 3
4 4 5 6 3 4 7 8 9 7 7 7 8 8 2 1 1 3 3 3 2 2 2 2 1 1 1 0 1 1 2 2 2 2 1 1 2 2 2 2 2 2 2 2
4 4 3 3 4 3 6 7 8 5 4 7 9 9 2 1 1 2 3 3 2 2 2 2 2 1 1 0 0 1 1 2 2 2 1 2 2 2 2 2 2 2 2 2
2 5 8 9 5 4 7 8 10 9 8 9 14 14 7 6 5 4 4 4 3 3 2 2 2 2 1 0 0 1 2 2 2 2 2 2 2 2 2 2 3 2 2 3
3 6 7 8 7 7 9 11 12 15 15 13 14 15 13 10 8 6 5 5 4 4 4 4 3 2 1 1 0 1 1 2 2 2 2 2 2 2 2 2 3 3 3 3
3 5 4 7 7 8 11 13 15 17 17 17 17 17 11 7 5 6 7 6 6 5 4 3 3 2 2 1 1 1 1 2 2 1 2 3 3 2 3 3 3 2 3 3
5 5 4 7 5 6 13 14 16 13 13 14 18 15 5 6 7 7 7 7 6 5 4 4 4 3 2 2 1 1 1 1 1 1 2 2 3 3 3 3 3 3 3 3
7 6 4 4 3 12 7 1 8 11 11 10 10 7 5 6 5 5 4 5 4 4 4 3 3 2 2 1 1 1 0 0 1 2 2 3 3 3 3 3 3 3 3 3
8 7 5 5 8 12 7 3 4 7 9 6 8 7 4 2 2 3 2 3 3 3 2 2 2 1 1 1 1 1 0 0 1 2 3 3 3 3 4 4 4 4 4 4
4 5 5 6 8 11 6 2 3 3 8 2 4 4 3 3 5 3 1 0 0 0 0 0 1 1 1 0 1 1 0 1 2 3 3 4 4 3 4 4 4 4 4 4
5 5 8 9 10 9 4 2 1 5 5 2 3 3 3 4 4 1 1 1 1 1 1 1 0 0 0 0 0 0 1 2 3 3 3 4 4 4 4 4 4 3 3 4
8 7 8 7 9 10 1 3 5 4 4 3 3 3 3 3 2 1 1 1 1 1 2 1 1 1 2 1 0 0 2 3 3 3 3 4 4 4 3 3 3 3 3 3
8 7 6 7 6 2 2 2 3 3 4 4 4 3 2 2 2 1 1 0 0 1 1 1 1 1 2 2 1 1 2 3 3 3 3 4 4 4 3 3 3 3 3 2
5 3 4 6 6 5 3 3 4 3 3 4 3 2 1 2 2 1 1 1 0 1 1 1 1 1 2 3 3 3 3 3 3 3 3 3 3 4 3 3 2 2 3 3
4 3 4 7 6 5 4 3 3 3 3 3 3 2 2 1 2 2 1 1 0 1 1 1 1 1 2 3 3 3 3 3 3 3 3 3 3 3 3 3 3 3 3 4
4 5 6 7 5 5 5 3 3 3 3 3 3 3 3 1 1 1 1 0 1 1 1 1 1 2 2 3 3 4 3 3 2 3 3 3 3 3 3 3 3 4 5 6
Wind_Direction
182 203 215 213 216 238 231 235 247 254 244 240 250 261 264 262 254 253 250 245 245 249 254 245 233 220 214 212 212 207 202 200 195 193 195 196 204 205 211 216 224 220 220 218
186 223 229 219 204 214 224 237 247 254 225 249 268 269 264 256 250 251 253 249 249 250 248 239 230 220 213 211 211 208 208 205 203 205 205 209 211 217 219 217 228 227 221 216
214 213 202 197 200 211 227 234 241 248 270 245 277 268 247 239 237 243 247 249 250 247 246 235 225 221 218 218 218 216 216 215 212 208 198 195 201 214 212 222 227 238 235 220
230 226 198 204 216 216 236 229 232 239 245 250 256 275 254 239 238 238 238 239 248 248 244 236 226 219 217 221 219 221 222 219 213 205 205 205 211 221 225 229 234 237 231 227
222 207 207 218 222 213 224 181 207 227 238 256 235 255 263 214 243 241 234 232 240 239 234 229 226 221 218 218 219 222 217 215 211 211 214 213 222 229 227 228 231 232 228 225
245 241 239 228 216 203 163 138 148 197 222 246 230 235 262 223 234 244 230 221 223 224 220 218 214 202 204 196 204 216 218 214 215 216 218 220 224 227 227 231 234 233 235 232
235 229 219 209 180 176 186 181 206 215 218 238 193 231 255 235 229 242 237 222 207 202 200 184 178 180 191 219 200 209 218 226 234 229 229 230 234 232 231 232 234 235 235 238
220 229 199 204 213 199 202 209 216 234 240 247 203 237 253 223 237 239 229 203 176 173 173 168 174 177 163 233 241 227 229 238 249 252 255 251 244 240 240 240 240 237 238 239
215 234 136 224 241 208 196 216 244 245 272 264 243 251 262 211 224 211 198 175 170 173 180 187 172 103 44 338 286 273 256 270 269 263 269 274 268 258 252 250 245 244 248 249
213 233 234 211 210 225 238 192 186 206 224 245 251 246 243 211 217 204 189 186 184 181 188 195 191 232 12 9 357 345 321 299 298 286 279 286 285 282 274 264 262 259 259 254
208 215 225 206 211 205 190 200 211 212 233 239 255 247 230 214 199 195 192 190 191 192 195 193 187 184 71 45 29 10 359 340 320 310 312 323 325 325 313 296 290 287 278 265
196 210 233 233 238 269 224 209 197 212 224 229 252 255 86 186 209 198 200 195 190 186 178 181 168 157 147 89 40 18 4 358 337 329 338 354 351 349 337 322 312 306 293 283
178 189 216 236 209 200 226 220 221 231 226 222 234 248 110 120 243 217 214 209 192 186 181 175 172 185 201 213 29 10 356 351 353 356 1 3 356 347 333 324 319 313 301 289
209 213 227 241 255 208 225 228 218 215 226 235 239 252 250 250 244 235 221 218 214 206 200 199 201 206 214 225 359 1 357 360 2 7 2 355 343 333 329 326 321 314 304 292
208 240 245 263 271 259 248 240 225 226 232 240 251 253 257 255 249 247 237 229 222 218 215 212 211 210 209 219 329 348 352 359 0 10 1 341 338 340 335 331 326 319 310 299
207 234 246 263 263 262 263 250 237 237 242 247 258 262 268 265 253 246 239 230 229 228 228 223 213 212 217 225 258 304 330 341 348 9 1 350 347 346 338 331 323 320 315 307
199 194 225 258 276 278 255 237 224 227 230 234 246 257 260 249 244 242 237 223 227 231 228 223 216 216 224 233 234 244 288 322 343 357 358 354 347 340 332 324 321 318 312 307
204 209 229 249 236 243 254 279 226 232 244 245 259 273 247 251 262 258 233 220 232 233 230 229 223 225 230 225 224 227 265 325 348 356 354 348 343 334 327 322 318 316 312 303
214 203 209 221 244 264 273 253 225 229 252 255 258 270 273 289 279 243 216 237 238 237 236 234 233 229 214 213 209 183 226 330 351 347 343 336 329 326 325 321 318 314 311 310
199 203 208 218 239 251 271 290 291 239 255 275 262 260 254 220 242 250 37 7 159 52 42 257 243 199 175 167 154 178 234 319 328 327 324 325 322 315 315 313 312 312 310 306
181 198 213 225 241 258 278 272 177 216 265 330 263 254 225 242 283 353 57 61 69 54 41 36 69 154 33 39 119 191 317 318 323 324 320 319 318 313 308 307 306 309 310 309
197 201 209 212 232 249 224 163 212 269 326 313 286 278 267 291 334 23 43 50 67 45 34 31 30 15 15 21 41 336 324 332 333 326 321 320 319 318 310 305 306 309 304 301
216 217 214 215 232 282 222 232 293 316 302 301 297 294 275 283 285 293 313 319 13 28 23 20 20 8 6 4 354 320 328 335 331 327 323 320 320 317 313 304 302 304 298 293
235 252 229 243 250 259 261 291 324 331 314 315 316 306 271 261 261 254 232 247 318 8 24 23 20 2 353 354 350 338 335 333 325 319 317 319 319 319 321 308 298 290 291 291
240 209 229 248 266 285 268 283 307 327 345 346 347 344 320 279 260 250 226 216 292 342 7 15 343 322 326 337 339 337 334 333 323 318 315 317 315 314 317 314 301 293 287 286
236 222 227 247 250 253 272 301 314 316 314 315 324 338 350 328 280 298 288 318 334 335 350 348 332 321 321 326 326 330 330 324 312 312 318 314 311 313 314 313 315 308 299 306